This is the latest recevied weather packets stored in our database for station/object W4CKA. If no packets are shown the sender has not sent any weather packets the latest 10 day(s).
| Time | Temp. | Humidity | Pressure | Rain* | Wind** | Luminosity | Snow |
|---|---|---|---|---|---|---|---|
| 1787946137 | 30° C | 73% | 1059.3 hPa | 0 mm | - | 570 W/m² | - |
| 1787945533 | 31.11° C | 69% | 1059.6 hPa | 0 mm | - | 608 W/m² | - |
| 1787944934 | 30.56° C | 72% | 1059.8 hPa | 0 mm | - | 533 W/m² | - |
| 1787944334 | 29.44° C | 75% | 1059.6 hPa | 0 mm | - | 642 W/m² | - |
| 1787943730 | 27.22° C | 74% | 1059.9 hPa | 0 mm | - | 654 W/m² | - |
| 1787943125 | 25.56° C | 78% | 1059.9 hPa | 0 mm | - | 272 W/m² | - |
| 1787942521 | 26.67° C | 82% | 1059.9 hPa | 0 mm | - | 130 W/m² | - |
| 1787941916 | 27.22° C | 78% | 1059.8 hPa | 0 mm | - | 95 W/m² | - |
| 1787941316 | 27.22° C | 78% | 1059.9 hPa | 0 mm | - | 88 W/m² | - |
| 1787940715 | 28.33° C | 74% | 1059.9 hPa | 0 mm | - | 95 W/m² | - |
| 1787940113 | 29.44° C | 71% | 1060 hPa | 0 mm | - | 180 W/m² | - |
| 1787939513 | 30° C | 63% | 1059.9 hPa | 0 mm | - | 690 W/m² | - |
| 1787938908 | 30° C | 69% | 1059.9 hPa | 0 mm | - | 278 W/m² | - |
| 1787938304 | 29.44° C | 72% | 1060.2 hPa | 0 mm | - | 685 W/m² | - |
| 1787937699 | 28.33° C | 71% | 1060.3 hPa | 0 mm | - | 475 W/m² | - |
| 1787937098 | 28.89° C | 70% | 1060.5 hPa | 0 mm | - | 230 W/m² | - |
| 1787936498 | 30° C | 73% | 1060.3 hPa | 0 mm | - | 614 W/m² | - |
| 1787935893 | 29.44° C | 72% | 1060.5 hPa | 0 mm | - | 646 W/m² | - |
| 1787935291 | 28.33° C | 75% | 1060.6 hPa | 0 mm | - | 620 W/m² | - |
| 1787934686 | 27.78° C | 76% | 1060.8 hPa | 0 mm | - | 185 W/m² | - |
| 1787934085 | 27.78° C | 79% | 1060.9 hPa | 0 mm | - | 628 W/m² | - |
| 1787933485 | 27.78° C | 79% | 1060.7 hPa | 0 mm | - | 482 W/m² | - |
| 1787932881 | 27.22° C | 80% | 1060.8 hPa | 0 mm | - | 669 W/m² | - |
| 1787932279 | 28.33° C | 79% | 1060.7 hPa | 0 mm | - | 631 W/m² | - |
| 1787931679 | 27.78° C | 77% | 1060.8 hPa | 0 mm | - | 679 W/m² | - |
* Rain latest hour (hover to see other rain measurements)
** Current wind speed in m/s (hover to see current wind gust speed)